Mojave, CA

2:00 AM PST on December 13, 2019 (GMT -0800)
Mojave

Weather History for KMHV - October, 2019

Change the Weather History Date:

Thursday, October 24, 2019

  Actual Average Record
Temperature  
Mean Temperature 64 °F -  
Max Temperature 78 °F 76 °F 91 °F (2003)
Min Temperature 51 °F 47 °F 38 °F (1975)
Growing Degree Days 14 (Base 50)    
Moisture  
Dew Point 12 °F    
Average Humidity 15    
Maximum Humidity 30    
Minimum Humidity 5    
Precipitation  
Precipitation 0.00 in - - ()
Sea Level Pressure  
Sea Level Pressure 30.19 in    
Wind  
Wind Speed 7 mph ()    
Max Wind Speed 16 mph    
Max Gust Speed 22 mph    
Visibility 9.9 miles    
Events      
Averages and records for this station are not official NWS values.
T = Trace of Precipitation, MM = Missing Value Source: Averaged Metar Reports

Daily Weather History Graph

Daily Weather History Graph

Search for Another Location

Airport or City:

Astronomy

Oct. 24, 2019 Rise Set
Actual Time 7:06 AM PDT 6:06 PM PDT
Civil Twilight 6:40 AM PDT 6:32 PM PDT
Nautical Twilight 6:10 AM PDT 7:02 PM PDT
Astronomical Twilight 5:41 AM PDT 7:31 PM PDT
Moon 2:55 AM PDT (10/24) 4:25 PM PDT (10/24)
Length of Visible Light 11h 52m
Length of Day
11h 00m
Waning Crescent, 16% of the Moon is Illuminated
Oct 24
Waning Crescent
Oct 27
New
Nov 4
First Quarter
Nov 12
Full
Nov 19
Last Quarter

Hourly Weather History & Observations

Time (PDT) Temp. Dew Point Humidity Pressure Visibility Wind Dir Wind Speed Gust Speed Precip Events Conditions
12:00 AM 62.6 °F 24.8 °F 24% 30.09 in 10.0 mi Calm Calm - N/A   Clear
12:20 AM 62.6 °F 24.8 °F 24% 30.09 in 10.0 mi NNE 4.6 mph - N/A   Clear
12:40 AM 60.8 °F 24.8 °F 25% 30.09 in 10.0 mi North 5.8 mph - N/A   Clear
1:00 AM 62.6 °F 24.8 °F 24% 30.09 in 10.0 mi NNE 10.4 mph - N/A   Clear
1:20 AM 62.6 °F 26.6 °F 26% 30.10 in 10.0 mi NNE 6.9 mph - N/A   Clear
1:40 AM 60.8 °F 26.6 °F 27% 30.10 in 10.0 mi NNE 8.1 mph - N/A   Clear
2:00 AM 60.8 °F 26.6 °F 27% 30.10 in 10.0 mi NNE 8.1 mph - N/A   Clear
2:20 AM 64.4 °F 26.6 °F 24% 30.10 in 10.0 mi NNE 15.0 mph - N/A   Clear
2:40 AM 64.4 °F 28.4 °F 26% 30.10 in 10.0 mi NNE 12.7 mph - N/A   Clear
3:00 AM 64.4 °F 26.6 °F 24% 30.10 in 10.0 mi NE 11.5 mph - N/A   Clear
3:20 AM 62.6 °F 26.6 °F 26% 30.10 in 10.0 mi NE 10.4 mph - N/A   Clear
3:40 AM 62.6 °F 26.6 °F 26% 30.10 in 10.0 mi NNE 11.5 mph - N/A   Clear
4:00 AM 60.8 °F 24.8 °F 25% 30.10 in 10.0 mi NE 9.2 mph - N/A   Clear
4:20 AM 60.8 °F 24.8 °F 25% 30.10 in 10.0 mi ENE 9.2 mph - N/A   Clear
4:40 AM 64.4 °F 24.8 °F 22% 30.11 in 10.0 mi NE 16.1 mph - N/A   Clear
5:00 AM 60.8 °F 24.8 °F 25% 30.11 in 10.0 mi NE 13.8 mph - N/A   Clear
5:40 AM 60.8 °F 23.0 °F 23% 30.14 in 10.0 mi ESE 4.6 mph 16.1 mph N/A   Clear
6:00 AM 59.0 °F 23.0 °F 25% 30.15 in 10.0 mi ESE 9.2 mph 17.3 mph N/A   Clear
6:20 AM 57.2 °F 23.0 °F 27% 30.16 in 10.0 mi ENE 4.6 mph - N/A   Clear
6:40 AM 55.4 °F 23.0 °F 29% 30.17 in 10.0 mi Calm Calm - N/A   Clear
7:00 AM 55.4 °F 21.2 °F 26% 30.18 in 10.0 mi North 5.8 mph - N/A   Clear
7:20 AM 51.8 °F 21.2 °F 30% 30.18 in 7.0 mi Calm Calm - N/A   Clear
7:40 AM 53.6 °F 21.2 °F 28% 30.19 in 6.0 mi NNW 3.5 mph - N/A   Haze
8:00 AM 57.2 °F 21.2 °F 25% 30.20 in 9.0 mi NW 4.6 mph - N/A   Clear
8:20 AM 62.6 °F 23.0 °F 22% 30.21 in 10.0 mi NNE 3.5 mph - N/A   Clear
8:40 AM 62.6 °F 21.2 °F 20% 30.22 in 10.0 mi ENE 4.6 mph - N/A   Clear
9:00 AM 64.4 °F 19.4 °F 18% 30.23 in 10.0 mi East 4.6 mph - N/A   Clear
9:20 AM 66.2 °F 15.8 °F 14% 30.24 in 10.0 mi East 6.9 mph - N/A   Clear
9:40 AM 68.0 °F 15.8 °F 13% 30.25 in 10.0 mi NE 6.9 mph - N/A   Clear
10:00 AM 69.8 °F 14.0 °F 12% 30.25 in 10.0 mi ENE 9.2 mph - N/A   Clear
10:20 AM 69.8 °F 15.8 °F 13% 30.26 in 10.0 mi ENE 6.9 mph - N/A   Clear
10:40 AM 69.8 °F 14.0 °F 12% 30.26 in 10.0 mi NE 4.6 mph 11.5 mph N/A   Clear
11:00 AM 69.8 °F 14.0 °F 12% 30.25 in 10.0 mi East 8.1 mph - N/A   Clear
11:20 AM 71.6 °F 12.2 °F 10% 30.25 in 10.0 mi East 8.1 mph - N/A   Clear
11:40 AM 73.4 °F 12.2 °F 10% 30.25 in 10.0 mi ENE 8.1 mph - N/A   Clear
12:00 PM 73.4 °F 10.4 °F 9% 30.24 in 10.0 mi ENE 10.4 mph 21.9 mph N/A   Clear
12:20 PM 75.2 °F 8.6 °F 8% 30.23 in 10.0 mi ENE 12.7 mph - N/A   Clear
12:40 PM 77.0 °F 8.6 °F 7% 30.23 in 10.0 mi NE 11.5 mph 19.6 mph N/A   Clear
1:00 PM 77.0 °F 8.6 °F 7% 30.22 in 10.0 mi NE 11.5 mph 18.4 mph N/A   Clear
1:20 PM 77.0 °F 8.6 °F 7% 30.20 in 10.0 mi ENE 13.8 mph 20.7 mph N/A   Clear
1:40 PM 78.8 °F 8.6 °F 7% 30.20 in 10.0 mi ENE 13.8 mph - N/A   Clear
2:20 PM 78.8 °F 6.8 °F 6% 30.19 in 10.0 mi East 9.2 mph 17.3 mph N/A   Clear
3:00 PM 78.8 °F 6.8 °F 6% 30.18 in 10.0 mi East 10.4 mph - N/A   Clear
3:20 PM 78.8 °F 6.8 °F 6% 30.18 in 10.0 mi East 9.2 mph 15.0 mph N/A   Clear
3:40 PM 78.8 °F 5.0 °F 6% 30.18 in 10.0 mi ESE 16.1 mph - N/A   Clear
4:00 PM 78.8 °F 5.0 °F 6% 30.19 in 10.0 mi East 11.5 mph 20.7 mph N/A   Clear
4:20 PM 78.8 °F 3.2 °F 5% 30.18 in 10.0 mi ENE 13.8 mph - N/A   Clear
4:40 PM 78.8 °F 3.2 °F 5% 30.18 in 10.0 mi ENE 12.7 mph - N/A   Clear
5:00 PM 77.0 °F 1.4 °F 5% 30.18 in 10.0 mi ESE 12.7 mph - N/A   Clear
5:20 PM 77.0 °F -0.4 °F 5% 30.18 in 10.0 mi East 13.8 mph - N/A   Clear
5:40 PM 75.2 °F -0.4 °F 5% 30.19 in 10.0 mi ESE 10.4 mph 16.1 mph N/A   Clear
6:00 PM 73.4 °F -0.4 °F 5% 30.19 in 10.0 mi ESE 11.5 mph - N/A   Clear
6:20 PM 71.6 °F -0.4 °F 6% 30.19 in 10.0 mi East 9.2 mph - N/A   Clear
6:40 PM 69.8 °F -0.4 °F 6% 30.19 in 10.0 mi East 6.9 mph - N/A   Clear
7:00 PM 68.0 °F -0.4 °F 7% 30.21 in 10.0 mi ENE 5.8 mph - N/A   Clear
7:20 PM 64.4 °F -0.4 °F 7% 30.21 in 9.0 mi North 5.8 mph - N/A   Clear
7:40 PM 66.2 °F -0.4 °F 7% 30.22 in 10.0 mi NW 5.8 mph - N/A   Clear
8:00 PM 66.2 °F -0.4 °F 7% 30.23 in 10.0 mi Calm Calm - N/A   Clear
8:20 PM 60.8 °F -0.4 °F 8% 30.23 in 10.0 mi NNW 6.9 mph - N/A   Clear
8:40 PM 57.2 °F -2.2 °F 9% 30.24 in 10.0 mi NNW 5.8 mph - N/A   Clear
9:00 PM 57.2 °F -2.2 °F 9% 30.24 in 10.0 mi North 4.6 mph - N/A   Clear
9:40 PM 59.0 °F -0.4 °F 9% 30.25 in 10.0 mi North 5.8 mph - N/A   Clear
10:00 PM 55.4 °F -2.2 °F 9% 30.26 in 10.0 mi North 5.8 mph - N/A   Clear
10:20 PM 55.4 °F -2.2 °F 9% 30.26 in 10.0 mi North 8.1 mph - N/A   Clear
10:40 PM 57.2 °F -2.2 °F 9% 30.26 in 10.0 mi North 8.1 mph - N/A   Clear
11:00 PM 53.6 °F -2.2 °F 10% 30.27 in 9.0 mi WNW 8.1 mph - N/A   Clear
11:20 PM 53.6 °F -2.2 °F 10% 30.27 in 10.0 mi NW 8.1 mph - N/A   Clear
11:40 PM 53.6 °F -2.2 °F 10% 30.27 in 10.0 mi NNW 9.2 mph - N/A   Clear